| time (UTC) | temp F | wind direction | speed knots | gust knots | rain 1hr in | rain 24hr in | rain mn in | humidity % | barometer mb |
| 20260504035624 | 65 | 334 | 16.5 | 22.6 | 0.00 | 0.00 | 0.00 | 31 | 1004.9 |
| 20260504034721 | 66 | 289 | 8.7 | 12.2 | 0.00 | 0.00 | 0.00 | 30 | 1004.1 |
| 20260504033722 | 67 | 291 | 9.6 | 15.6 | 0.00 | 0.00 | 0.00 | 29 | 1004.0 |
| 20260504032722 | 65 | 289 | 10.4 | 14.8 | 0.00 | 0.00 | 0.00 | 29 | 1004.1 |
| 20260504031740 | 63 | 272 | 7.0 | 9.6 | 0.00 | 0.00 | 0.00 | 30 | 1004.0 |
| 20260504030722 | 62 | 249 | 7.8 | 8.7 | 0.00 | 0.00 | 0.00 | 32 | 1003.8 |
| 20260504025723 | 61 | 250 | 7.0 | 8.7 | 0.00 | 0.00 | 0.00 | 34 | 1003.8 |
| 20260504024722 | 60 | 247 | 6.1 | 7.8 | 0.00 | 0.00 | 0.00 | 35 | 1003.7 |
| 20260504022822 | 61 | 247 | 6.1 | 8.7 | 0.00 | 0.00 | 0.00 | 32 | 1003.5 |
| 20260504021822 | 62 | 247 | 7.0 | 8.7 | 0.00 | 0.00 | 0.00 | 31 | 1003.7 |
| 20260504020920 | 62 | 247 | 7.0 | 8.7 | 0.00 | 0.00 | 0.00 | 31 | 1003.7 |
| 20260504015922 | 62 | 247 | 6.1 | 7.0 | 0.00 | 0.00 | 0.00 | 29 | 1003.7 |
| 20260504014922 | 64 | 247 | 6.1 | 7.8 | 0.00 | 0.00 | 0.00 | 28 | 1003.9 |
| 20260504013922 | 65 | 248 | 7.0 | 7.8 | 0.00 | 0.00 | 0.00 | 27 | 1003.9 |
| 20260504012921 | 66 | 247 | 7.8 | 10.4 | 0.00 | 0.00 | 0.00 | 25 | 1004.2 |
| 20260504011923 | 68 | 247 | 8.7 | 11.3 | 0.00 | 0.00 | 0.00 | 23 | 1004.4 |
| 20260504010923 | 69 | 248 | 10.4 | 13.9 | 0.00 | 0.00 | 0.00 | 23 | 1004.5 |
| 20260504004922 | 70 | 251 | 10.4 | 13.0 | 0.00 | 0.00 | 0.00 | 22 | 1004.9 |
| 20260504003923 | 71 | 261 | 12.2 | 14.8 | 0.00 | 0.00 | 0.00 | 22 | 1005.1 |
| 20260504002937 | 71 | 252 | 11.3 | 15.6 | 0.00 | 0.00 | 0.00 | 21 | 1005.2 |
| 20260504001921 | 71 | 273 | 14.8 | 17.4 | 0.00 | 0.00 | 0.00 | 20 | 1005.2 |
| 20260504000921 | 72 | 285 | 11.3 | 14.8 | 0.00 | 0.00 | 0.00 | 20 | 1005.4 |
| 20260503235021 | 72 | 281 | 13.0 | 18.2 | 0.00 | 0.00 | 0.00 | 20 | 1005.7 |
| 20260503234023 | 72 | 266 | 9.6 | 13.0 | 0.00 | 0.00 | 0.00 | 20 | 1005.7 |
| 20260503232021 | 73 | 250 | 15.6 | 16.5 | 0.00 | 0.00 | 0.00 | 24 | 1006.0 |
| 20260503231021 | 73 | 274 | 15.6 | 21.7 | 0.00 | 0.00 | 0.00 | 24 | 1006.0 |
| 20260503230021 | 73 | 251 | 13.9 | 17.4 | 0.00 | 0.00 | 0.00 | 23 | 1005.9 |
| 20260503225022 | 73 | 275 | 18.2 | 21.7 | 0.00 | 0.00 | 0.00 | 23 | 1006.1 |
| 20260503224022 | 72 | 248 | 17.4 | 22.6 | 0.00 | 0.00 | 0.00 | 24 | 1006.1 |
| 20260503223023 | 74 | 250 | 13.9 | 15.6 | 0.00 | 0.00 | 0.00 | 24 | 1006.5 |
| 20260503222121 | 74 | 251 | 13.9 | 16.5 | 0.00 | 0.00 | 0.00 | 23 | 1006.6 |
| 20260503220221 | 74 | 261 | 13.9 | 16.5 | 0.00 | 0.00 | 0.00 | 23 | 1007.1 |
| 20260503215320 | 73 | 253 | 16.5 | 20.0 | 0.00 | 0.00 | 0.00 | 23 | 1007.1 |
| 20260503214337 | 72 | 244 | 17.4 | 21.7 | 0.00 | 0.00 | 0.00 | 25 | 1007.4 |
| 20260503213322 | 72 | 247 | 14.8 | 18.2 | 0.00 | 0.00 | 0.00 | 24 | 1007.7 |
| 20260503212322 | 72 | 249 | 13.9 | 18.2 | 0.00 | 0.00 | 0.00 | 25 | 1007.9 |
| 20260503211420 | 73 | 284 | 16.5 | 19.1 | 0.00 | 0.00 | 0.00 | 23 | 1008.1 |
| 20260503210421 | 72 | 251 | 15.6 | 20.9 | 0.00 | 0.00 | 0.00 | 24 | 1008.4 |
| 20260503205422 | 72 | 247 | 18.2 | 26.9 | 0.00 | 0.00 | 0.00 | 24 | 1008.8 |
| 20260503204421 | 72 | 277 | 13.0 | 18.2 | 0.00 | 0.00 | 0.00 | 24 | 1009.0 |
| 20260503203422 | 72 | 247 | 14.8 | 20.0 | 0.00 | 0.00 | 0.00 | 25 | 1009.2 |
| 20260503201522 | 71 | 248 | 12.2 | 15.6 | 0.00 | 0.00 | 0.00 | 26 | 1009.7 |
| 20260503200521 | 71 | 247 | 19.1 | 24.3 | 0.00 | 0.00 | 0.00 | 26 | 1009.8 |
| 20260503195523 | 72 | 248 | 20.0 | 24.3 | 0.00 | 0.00 | 0.00 | 27 | 1010.1 |
| 20260503194522 | 71 | 254 | 12.2 | 14.8 | 0.00 | 0.00 | 0.00 | 27 | 1010.4 |
| 20260503193523 | 72 | 247 | 13.9 | 21.7 | 0.00 | 0.00 | 0.00 | 26 | 1010.6 |
| 20260503192620 | 70 | 260 | 15.6 | 19.1 | 0.00 | 0.00 | 0.00 | 26 | 1010.9 |
| 20260503191622 | 70 | 248 | 15.6 | 20.0 | 0.00 | 0.00 | 0.00 | 27 | 1011.0 |
| 20260503190623 | 70 | 261 | 8.7 | 13.9 | 0.00 | 0.00 | 0.00 | 26 | 1011.4 |
| 20260503185621 | 70 | 278 | 11.3 | 16.5 | 0.00 | 0.00 | 0.00 | 28 | 1011.6 |
| 20260503184622 | 70 | 247 | 19.1 | 21.7 | 0.00 | 0.00 | 0.00 | 27 | 1011.7 |
| 20260503183623 | 69 | 247 | 10.4 | 13.9 | 0.00 | 0.00 | 0.00 | 27 | 1011.9 |
| 20260503182621 | 69 | 251 | 13.0 | 13.9 | 0.00 | 0.00 | 0.00 | 26 | 1012.1 |
| 20260503180721 | 69 | 256 | 13.9 | 19.1 | 0.00 | 0.00 | 0.00 | 28 | 1012.6 |
| 20260503175820 | 69 | 268 | 11.3 | 13.0 | 0.00 | 0.00 | 0.00 | 28 | 1012.9 |
| 20260503174920 | 68 | 254 | 13.9 | 18.2 | 0.00 | 0.00 | 0.00 | 28 | 1013.0 |
| 20260503173922 | 67 | 247 | 12.2 | 18.2 | 0.00 | 0.00 | 0.00 | 29 | 1013.2 |
| 20260503172921 | 67 | 247 | 13.9 | 18.2 | 0.00 | 0.00 | 0.00 | 28 | 1013.7 |
| 20260503171920 | 67 | 255 | 10.4 | 12.2 | 0.00 | 0.00 | 0.00 | 29 | 1013.9 |
| 20260503170921 | 67 | 247 | 11.3 | 14.8 | 0.00 | 0.00 | 0.00 | 31 | 1013.9 |
| 20260503150221 | 61 | 247 | 13.9 | 16.5 | 0.00 | 0.00 | 0.00 | 33 | 1016.1 |
| 20260503131321 | 45 | 247 | 7.0 | 8.7 | 0.00 | 0.00 | 0.00 | 59 | 1016.6 |
| 20260503130321 | 43 | 247 | 6.1 | 7.8 | 0.00 | 0.00 | 0.00 | 60 | 1016.6 |
| 20260503110621 | 33 | 247 | 5.2 | 6.1 | 0.00 | 0.00 | 0.00 | 71 | 1016.6 |
| 20260503080923 | 40 | 292 | 3.5 | 3.5 | 0.00 | 0.00 | 0.00 | 57 | 1017.6 |
| 20260503072221 | 44 | 292 | 1.7 | 2.6 | 0.00 | 0.00 | 0.00 | 49 | 1017.9 |
| 20260503071223 | 44 | 292 | 2.6 | 2.6 | 0.00 | 0.00 | 0.00 | 49 | 1018.0 |
| 20260503070221 | 45 | 292 | 2.6 | 2.6 | 0.00 | 0.00 | 0.00 | 48 | 1018.1 |
| 20260503060322 | 46 | 315 | 2.6 | 3.5 | 0.00 | 0.00 | 0.00 | 49 | 1018.1 |
| 20260503054417 | 46 | 326 | 2.6 | 3.5 | 0.00 | 0.00 | 0.00 | 48 | 1018.1 |
| 20260503053417 | 47 | 315 | 3.5 | 4.3 | 0.00 | 0.00 | 0.00 | 48 | 1017.9 |
| 20260503052419 | 46 | 337 | 2.6 | 3.5 | 0.00 | 0.00 | 0.00 | 50 | 1017.9 |
| 20260503050418 | 45 | 292 | 1.7 | 1.7 | 0.00 | 0.00 | 0.00 | 53 | 1017.9 |
| 20260503045418 | 45 | 308 | 1.7 | 2.6 | 0.00 | 0.00 | 0.00 | 54 | 1017.9 |
| 20260503044418 | 45 | 337 | 1.7 | 2.6 | 0.00 | 0.00 | 0.00 | 53 | 1018.1 |
| 20260503044317 | 45 | 337 | 1.7 | 2.6 | 0.00 | 0.00 | 0.00 | 53 | 1018.1 |
| 20260503042318 | 47 | 337 | 0.9 | 1.7 | 0.00 | 0.00 | 0.00 | 51 | 1018.1 |
| 20260503041318 | 47 | 337 | 1.7 | 2.6 | 0.00 | 0.00 | 0.00 | 51 | 1018.1 |